Weather History for Thermal, CA

Change the Weather History Date:

Monday, August 4, 2014

  Actual Average Record
Temperature  
Mean Temperature 87 °F 91 °F  
Max Temperature 98 °F 106 °F 118 °F (1969)
Min Temperature 75 °F 75 °F 63 °F (1996)
Degree Days  
Heating Degree Days 0 0  
Month to date heating degree days 0 0  
Since 1 June heating degree days 0 0  
Since 1 July heating degree days 0 0  
Cooling Degree Days 22 26  
Month to date cooling degree days 93 104  
Year to date cooling degree days 2515 2171  
Since 1 June cooling degree days 1693 1498  
Growing Degree Days 36 (Base 50)    
Moisture  
Dew Point 65 °F    
Average Humidity 65    
Maximum Humidity 94    
Minimum Humidity 35    
Precipitation  
Precipitation 0.00 in 0.00 in 0.19 in (1955)
Month to date precipitation 0.32 0.02  
Year to date precipitation 0.40 1.98  
Since 1 July precipitation 0.32 0.16  
Snow  
Snow 0.00 in - - ()
Month to date snowfall 0.0  
Year to date snowfall 0.0  
Since 1 July snowfall 0.0  
Snow Depth 0.00 in    
Sea Level Pressure  
Sea Level Pressure 29.85 in    
Wind  
Wind Speed 3 mph (SW)    
Max Wind Speed 12 mph    
Max Gust Speed 15 mph    
Visibility 10 miles    
Events      
T = Trace of Precipitation, MM = Missing Value Source: NWS Daily Summary

Daily Weather History Graph

Daily Weather History Graph

Search for Another Location

Airport:

Trip Planner

Search our weather history database for the weather conditions in past years. The results will help you decide how hot, cold, wet, or windy it might be!

Date:

Astronomy

Aug. 04, 2014 Rise Set
Actual Time 5:59 AM PDT 7:41 PM PDT
Civil Twilight 5:31 AM PDT 8:08 PM PDT
Nautical Twilight 4:59 AM PDT 8:41 PM PDT
Astronomical Twilight 4:24 AM PDT 9:15 PM PDT
Moon 1:59 PM PDT (8/4) 12:06 AM PDT (8/4)
Length of Visible Light 14h 36m
Length of Day
13h 42m
First Quarter, 58% of the Moon is Illuminated
Aug 4
First Quarter
Aug 10
Full
Aug 17
Last Quarter
Aug 25
New
Sep 2
First Quarter

Hourly Weather History & Observations

Time (PDT) Temp. Heat Index Dew Point Humidity Pressure Visibility Wind Dir Wind Speed Gust Speed Precip Events Conditions
12:52 AM 77.0 °F - 73.0 °F 88% 29.87 in 10.0 mi Calm Calm - N/A   Overcast
3:52 AM 75.9 °F - 72.0 °F 87% 29.86 in 9.0 mi Calm Calm - N/A   Clear
5:52 AM 75.0 °F - 71.1 °F 87% 29.91 in 9.0 mi WSW 4.6 mph - N/A   Clear
6:52 AM 75.9 °F - 73.0 °F 91% 29.93 in 6.0 mi Calm Calm - N/A   Clear
7:52 AM 79.0 °F - 72.0 °F 79% 29.92 in 8.0 mi Calm Calm - N/A   Clear
8:52 AM 84.9 °F 88.2 °F 68.0 °F 57% 29.92 in 10.0 mi NW 5.8 mph - N/A   Clear
9:52 AM 87.1 °F 93.6 °F 72.0 °F 61% 29.91 in 10.0 mi SW 5.8 mph - N/A   Clear
10:52 AM 89.1 °F 93.7 °F 69.1 °F 52% 29.91 in 10.0 mi Calm Calm - N/A   Clear
11:52 AM 91.0 °F 95.2 °F 68.0 °F 47% 29.90 in 10.0 mi SW 5.8 mph - N/A   Clear
12:52 PM 93.0 °F 96.4 °F 66.9 °F 42% 29.88 in 10.0 mi ESE 8.1 mph - N/A   Clear
2:52 PM 96.1 °F 99.3 °F 66.0 °F 37% 29.83 in 10.0 mi North - - N/A   Clear
3:52 PM 97.0 °F 99.9 °F 64.9 °F 35% 29.82 in 10.0 mi Variable 3.5 mph - N/A   Clear
4:52 PM 97.0 °F 99.9 °F 64.9 °F 35% 29.81 in 10.0 mi SSW 4.6 mph - N/A   Clear
5:52 PM 98.1 °F 101.2 °F 64.9 °F 34% 29.79 in 10.0 mi SSW 5.8 mph - N/A   Clear
6:52 PM 96.1 °F 98.8 °F 64.9 °F 36% 29.77 in 10.0 mi South 5.8 mph - N/A   Clear
7:52 PM 91.0 °F 93.8 °F 66.0 °F 44% 29.78 in 10.0 mi ESE 4.6 mph - N/A   Clear
8:52 PM 87.1 °F 92.0 °F 70.0 °F 57% 29.80 in 10.0 mi NE 4.6 mph - N/A   Clear
9:52 PM 90.0 °F - 46.9 °F 23% 29.82 in 10.0 mi North 8.1 mph - N/A   Clear
10:52 PM 89.1 °F - 46.9 °F 23% 29.83 in 10.0 mi NNW 15.0 mph - N/A   Clear
11:52 PM 87.1 °F - 46.9 °F 25% 29.84 in 10.0 mi NNW 12.7 mph - N/A   Clear